sat.trackr.live / text

‹ back to catalog

STARLINK-35406

NORAD 65795 · 2025-218E

PAYLOAD ACTIVE UNKNOWN

§ Identity

Operator
Country
US
Launch date
2025-09-26
Launch site
AFWTR
Launch vehicle
Mass (kg)
RCS (m²)

Purposes: comms

External: N2YO · Heavens-Above · Gunter

§ Orbital elements

Epoch: 2026-05-25T03:43:06.382272Z

Period
95.64 min
Inclination
97.4493°
Eccentricity
0.0002353
Mean motion
15.05654781 rev/d
Perigee alt
547.9 km
Apogee alt
551.1 km
Semi-major
6,927.6 km
B*
1.4433e-4
RAAN
7.9162°
Arg perigee
91.9027°
Mean anomaly
268.2470°
Rev number
3,647

§ Raw data

STARLINK-354061 65795U 25218E   26145.15493498  .00002025  00000+0  14433-3 0  99972 65795  97.4493   7.9162 0002353  91.9027 268.2470 15.05654781 36477

JSON: /api/v1/satellites/65795 · /tle

For live sub-satellite position, see the globe view (requires WebGL).

§ Visibility from observer

Set your observer location to see the next 7 days of passes ≥ 10°. The values pass through the URL so the page stays shareable.

No JS? Fill the form by hand. The geolocation button needs JavaScript.